TimeEDT,TemperatureF,Dew PointF,Humidity,Sea Level PressureIn,VisibilityMPH,Wind Direction,Wind SpeedMPH,Gust SpeedMPH,PrecipitationIn,Events,Conditions,WindDirDegrees,DateUTC
12:53 AM,48.0,43.0,83,29.78,10.0,WSW,4.6,-,N/A,,Mostly Cloudy,240,2013-11-02 04:53:00
1:53 AM,51.1,43.0,74,29.79,10.0,WNW,5.8,-,N/A,,Mostly Cloudy,290,2013-11-02 05:53:00
2:53 AM,48.9,42.1,77,29.80,10.0,WNW,5.8,-,N/A,,Clear,290,2013-11-02 06:53:00
3:53 AM,46.0,41.0,83,29.80,10.0,WSW,3.5,-,N/A,,Clear,240,2013-11-02 07:53:00
4:53 AM,43.0,39.9,89,29.81,10.0,SW,3.5,-,N/A,,Clear,230,2013-11-02 08:53:00
5:53 AM,43.0,39.9,89,29.83,10.0,WSW,3.5,-,N/A,,Clear,250,2013-11-02 09:53:00
6:53 AM,42.1,39.9,92,29.83,10.0,WSW,5.8,-,N/A,,Mostly Cloudy,240,2013-11-02 10:53:00
7:53 AM,41.0,39.0,93,29.85,10.0,WSW,4.6,-,N/A,,Clear,240,2013-11-02 11:53:00
8:53 AM,41.0,39.9,96,29.88,10.0,WSW,5.8,-,N/A,,Clear,240,2013-11-02 12:53:00
9:53 AM,46.9,41.0,80,29.90,10.0,West,6.9,-,N/A,,Clear,260,2013-11-02 13:53:00
10:53 AM,51.1,41.0,68,29.91,10.0,WSW,8.1,-,N/A,,Clear,250,2013-11-02 14:53:00
11:53 AM,53.1,41.0,64,29.92,10.0,West,9.2,16.1,N/A,,Scattered Clouds,280,2013-11-02 15:53:00
12:53 PM,55.0,39.0,55,29.92,10.0,WNW,10.4,-,N/A,,Scattered Clouds,290,2013-11-02 16:53:00
1:53 PM,55.0,39.0,55,29.91,10.0,West,9.2,-,N/A,,Overcast,260,2013-11-02 17:53:00
2:53 PM,55.9,37.9,51,29.90,10.0,WSW,8.1,16.1,N/A,,Overcast,250,2013-11-02 18:53:00
3:53 PM,51.1,43.0,74,29.92,10.0,Calm,Calm,-,0.02,,Scattered Clouds,0,2013-11-02 19:53:00
4:53 PM,53.1,41.0,64,29.93,10.0,West,3.5,-,0.00,,Partly Cloudy,260,2013-11-02 20:53:00
5:53 PM,53.1,39.0,59,29.95,10.0,WNW,8.1,-,N/A,,Overcast,300,2013-11-02 21:53:00
6:53 PM,51.1,37.9,61,29.98,10.0,WNW,3.5,-,N/A,,Mostly Cloudy,300,2013-11-02 22:53:00
7:53 PM,51.1,39.0,63,30.02,10.0,NW,5.8,-,N/A,,Overcast,310,2013-11-02 23:53:00
8:53 PM,48.0,36.0,63,30.05,10.0,NNW,6.9,-,N/A,,Clear,330,2013-11-03 00:53:00
9:53 PM,46.9,36.0,66,30.08,10.0,NW,3.5,-,N/A,,Mostly Cloudy,310,2013-11-03 01:53:00
10:53 PM,45.0,36.0,71,30.10,10.0,WNW,3.5,-,N/A,,Overcast,290,2013-11-03 02:53:00
11:53 PM,45.0,36.0,71,30.12,10.0,Calm,Calm,-,N/A,,Overcast,0,2013-11-03 03:53:00